GW5292 Weather Reports


Display with metric or nautical units.
time (UTC)temp
F
wind
direction
speed
MPH
gust
MPH
rain 1hr
in
rain 24hr
in
rain mn
in
humidity
%
barometer
mb
20260507014512 58 210 0.0 2.0 0.00 0.42 0.42 88 1010.1
20260507013020 58 165 0.0 2.0 0.00 0.42 0.42 88 1009.9
20260507011513 60 306 0.0 2.0 0.00 0.42 0.42 89 1009.5
20260507010015 61 299 0.0 7.0 0.00 0.42 0.42 91 1009.4
20260507004513 61 214 1.0 2.0 0.02 0.42 0.42 94 1009.0
20260507003019 62 215 0.0 2.0 0.07 0.42 0.42 93 1008.3
20260507001544 62 215 1.0 1.0 0.16 0.42 0.42 93 1008.1
20260507000016 62 215 1.0 2.0 0.17 0.42 0.42 92 1007.9
20260506234516 62 207 1.0 4.0 0.15 0.40 0.40 90 1007.9
20260506233019 64 182 1.0 3.0 0.10 0.35 0.35 89 1007.9
20260506231507 65 147 0.0 4.0 0.01 0.26 0.26 85 1007.5
20260506230009 66 209 1.0 5.0 0.00 0.25 0.25 82 1007.0
20260506224509 66 206 2.0 4.0 0.00 0.25 0.25 81 1007.0
20260506223003 67 215 1.0 5.0 0.00 0.25 0.25 81 1007.1
20260506221504 67 203 1.0 5.0 0.00 0.25 0.25 81 1007.1
20260506220008 67 198 2.0 5.0 0.00 0.25 0.25 80 1006.9
20260506214510 67 206 1.0 6.0 0.00 0.25 0.25 81 1006.8
20260506213012 66 209 2.0 5.0 0.00 0.25 0.25 83 1006.7
20260506211504 65 111 0.0 2.0 0.00 0.25 0.25 85 1006.5
20260506210007 65 207 1.0 5.0 0.00 0.25 0.25 85 1006.6
20260506204508 65 196 3.0 5.0 0.00 0.25 0.25 85 1006.5
20260506203011 64 202 2.0 5.0 0.00 0.25 0.25 85 1006.6
20260506201519 64 216 2.0 5.0 0.00 0.25 0.25 86 1006.6
20260506200004 64 198 4.0 8.0 0.00 0.25 0.25 85 1006.6
20260506194508 64 198 3.0 8.0 0.00 0.25 0.25 86 1006.6
20260506193021 64 194 4.0 6.0 0.00 0.25 0.25 87 1006.6
20260506191515 63 203 3.0 6.0 0.00 0.25 0.25 88 1006.7
20260506190016 63 228 4.0 10.0 0.00 0.25 0.25 89 1006.9
20260506184505 62 208 4.0 10.0 0.00 0.25 0.25 89 1007.1
20260506183010 61 213 3.0 5.0 0.00 0.25 0.25 90 1007.3
20260506181512 61 207 4.0 8.0 0.00 0.25 0.25 91 1007.4
20260506180025 61 194 4.0 8.0 0.01 0.25 0.25 91 1007.4
20260506174517 61 200 4.0 7.0 0.02 0.25 0.25 91 1007.6
20260506173007 61 202 5.0 8.0 0.04 0.25 0.25 91 1007.5
20260506171512 61 209 2.0 9.0 0.04 0.25 0.25 91 1007.5
20260506170003 61 195 3.0 5.0 0.04 0.24 0.24 91 1007.6
20260506164517 61 201 4.0 7.0 0.04 0.23 0.23 90 1007.8
20260506163010 61 197 4.0 8.0 0.04 0.21 0.21 89 1007.8
20260506161512 61 203 5.0 11.0 0.06 0.21 0.21 89 1007.7
20260506160003 61 213 4.0 11.0 0.09 0.20 0.20 90 1007.3
20260506154503 61 212 4.0 12.0 0.10 0.19 0.19 90 1007.6
20260506153003 61 217 3.0 9.0 0.10 0.17 0.17 90 1008.2
20260506151507 61 177 5.0 10.0 0.10 0.15 0.15 90 1008.6
20260506150011 62 205 6.0 11.0 0.07 0.11 0.11 88 1008.6
20260506144503 62 201 5.0 9.0 0.05 0.09 0.09 88 1008.3
20260506143004 62 201 4.0 9.0 0.04 0.07 0.07 88 1008.3
20260506141518 61 207 4.0 8.0 0.03 0.05 0.05 87 1008.1
20260506140020 62 211 5.0 11.0 0.03 0.04 0.04 86 1008.4
20260506134516 62 202 3.0 9.0 0.03 0.04 0.04 86 1008.3
20260506133003 62 205 4.0 6.0 0.03 0.03 0.03 86 1008.4
20260506131509 62 198 2.0 6.0 0.02 0.02 0.02 86 1008.8
20260506130008 62 210 4.0 7.0 0.01 0.01 0.01 85 1008.8
20260506124513 62 202 3.0 8.0 0.01 0.01 0.01 84 1008.8
20260506123018 63 199 3.0 7.0 0.00 0.00 0.00 82 1008.9
20260506121508 63 185 5.0 8.0 0.00 0.00 0.00 80 1008.7
20260506120011 64 214 4.0 8.0 0.00 0.00 0.00 78 1008.5
20260506114510 65 196 3.0 8.0 0.00 0.00 0.00 75 1008.5
20260506113013 65 203 3.0 7.0 0.00 0.00 0.00 72 1008.3
20260506111523 66 181 4.0 7.0 0.00 0.00 0.00 71 1008.3
20260506110006 66 200 5.0 16.0 0.00 0.00 0.00 70 1008.1
20260506104513 66 198 6.0 12.0 0.00 0.00 0.00 70 1007.9
20260506103034 66 210 6.0 12.0 0.00 0.00 0.00 69 1007.8
20260506101519 67 158 4.0 12.0 0.00 0.00 0.00 69 1007.7
20260506100023 67 221 5.0 11.0 0.00 0.00 0.00 68 1007.6
20260506094510 67 198 4.0 16.0 0.00 0.00 0.00 67 1007.9
20260506093020 67 196 4.0 11.0 0.00 0.00 0.00 66 1007.9
20260506091519 68 161 7.0 14.0 0.00 0.00 0.00 65 1007.7
20260506090024 68 192 6.0 10.0 0.00 0.00 0.00 64 1007.6
20260506084558 68 224 5.0 12.0 0.00 0.00 0.00 63 1007.8
20260506083013 68 206 8.0 13.0 0.00 0.00 0.00 61 1007.8
20260506081518 69 216 6.0 11.0 0.00 0.00 0.00 60 1007.8
20260506073027 69 197 5.0 11.0 0.00 0.00 0.00 58 1007.9
20260506071516 69 200 6.0 8.0 0.00 0.00 0.00 57 1008.0
20260506061514 70 190 5.0 12.0 0.00 0.00 0.00 54 1008.3
20260506044521 71 192 6.0 15.0 0.00 0.00 0.00 49 1008.9
20260506043004 71 173 9.0 16.0 0.00 0.00 0.00 48 1009.0
20260506041507 71 200 6.0 12.0 0.00 0.00 0.00 47 1009.0
20260506040009 72 207 6.0 14.0 0.00 0.00 0.00 46 1009.1
20260506034522 72 155 5.0 11.0 0.00 0.00 0.00 45 1009.0
20260506033022 72 181 7.0 11.0 0.00 0.00 0.00 45 1008.9
20260506031504 73 191 6.0 12.0 0.00 0.00 0.00 44 1008.9
20260506030010 73 212 7.0 17.0 0.00 0.00 0.00 44 1008.9
20260506024513 73 196 7.0 11.0 0.00 0.00 0.00 43 1008.8
20260506023034 73 150 8.0 14.0 0.00 0.00 0.00 44 1009.0
20260506021533 73 177 4.0 7.0 0.00 0.00 0.00 44 1009.1
20260506020007 74 211 4.0 9.0 0.00 0.00 0.00 42 1008.9